START_TIME,STEP,MOV.,M29,t_acc.,H22,t_acc.,H26,t_acc.,H30,t_acc.
1980-11-14 12:00:20.470 ,7,0,0.,24.0,0.,24.0,0.,24.0,0.,24.0
1980-11-14 12:00:44.470 ,7,1,0.,24.0,0.,24.0,0.,24.0,0.,24.0
1980-11-14 12:01:08.470 ,7,0,0.,24.0,0.,24.0,0.,24.0,0.,24.0
1980-11-14 12:01:32.470 ,6,1,0.,24.0,0.,24.0,0.,24.0,0.,24.0
1980-11-14 12:01:56.470 ,6,0,0.,24.0,0.,24.0,0.,24.0,0.,24.0
1980-11-14 12:02:20.470 ,5,1,0.,24.0,0.,24.0,0.,24.0,0.,24.0
1980-11-14 12:02:44.470 ,5,0,0.,24.0,0.,24.0,0.,24.0,0.,24.0
1980-11-14 12:03:08.470 ,4,1,0.,24.0,0.,24.0,0.,24.0,0.,24.0
1980-11-14 12:03:32.470 ,4,0,0.,24.0,0.,24.0,0.,24.0,0.,24.0
1980-11-14 12:03:56.470 ,3,1,0.,24.0,0.,24.0,0.,24.0,0.,24.0
1980-11-14 12:04:20.470 ,3,0,0.,24.0,0.,24.0,0.,24.0,0.,24.0
1980-11-14 12:04:44.470 ,2,1,0.,24.0,0.,24.0,0.,24.0,0.,24.0
1980-11-14 12:05:08.470 ,2,0,0.,24.0,0.,24.0,0.,24.0,0.,24.0
1980-11-14 12:05:32.470 ,1,1,0.,24.0,0.,24.0,0.,24.0,0.,24.0
1980-11-14 12:05:56.470 ,1,0,0.,24.0,0.,24.0,0.,24.0,0.,24.0
1980-11-14 12:06:20.470 ,0,1,0.,24.0,0.,24.0,0.,24.0,0.,24.0
1980-11-14 12:06:44.470 ,0,0,0.,24.0,0.,24.0,0.,24.0,0.,24.0
1980-11-14 12:07:08.470 ,0,1,0.,24.0,0.,24.0,0.,24.0,0.,24.0
1980-11-14 12:07:32.470 ,0,0,0.,24.0,0.,24.0,0.,24.0,0.,24.0
1980-11-14 12:07:56.470 ,1,1,0.,24.0,0.,24.0,0.,24.0,0.,24.0
1980-11-14 12:08:20.470 ,1,0,0.,24.0,0.,24.0,0.,24.0,0.,24.0
1980-11-14 12:08:44.470 ,2,1,0.,24.0,0.,24.0,0.,24.0,0.,24.0
1980-11-14 12:09:08.470 ,2,0,0.,24.0,0.,24.0,0.,24.0,0.,24.0
1980-11-14 12:09:32.470 ,3,1,0.,24.0,0.,24.0,0.,24.0,0.,24.0
1980-11-14 12:09:56.470 ,3,0,0.,24.0,0.,24.0,0.,24.0,0.,24.0
1980-11-14 12:10:20.470 ,4,1,0.,24.0,0.,24.0,0.,24.0,0.,24.0
1980-11-14 12:10:44.470 ,4,0,0.,24.0,0.,24.0,0.,24.0,0.,24.0
1980-11-14 12:11:08.470 ,5,1,0.,24.0,0.,24.0,0.,24.0,0.,24.0
1980-11-14 12:11:32.470 ,5,0,0.,24.0,0.,24.0,0.,24.0,0.,24.0
1980-11-14 12:11:56.470 ,6,1,0.,24.0,0.,24.0,0.,24.0,0.,24.0
1980-11-14 12:12:20.470 ,6,0,0.,24.0,0.,24.0,0.,24.0,0.,24.0
1980-11-14 12:12:44.470 ,7,1,0.,24.0,0.,24.0,0.,24.0,0.,24.0
1980-11-14 12:13:08.470 ,7,0,0.,24.0,0.,24.0,0.,24.0,0.,24.0
1980-11-14 12:13:32.470 ,7,1,0.,24.0,0.,24.0,0.,24.0,0.,24.0
1980-11-14 12:13:56.470 ,7,0,0.,24.0,0.,24.0,0.,24.0,0.,24.0
1980-11-14 12:14:20.470 ,6,1,0.,24.0,0.,24.0,0.,24.0,0.,24.0
1980-11-14 12:14:44.470 ,6,0,0.,24.0,0.,24.0,0.,24.0,0.,24.0
1980-11-14 12:15:08.470 ,5,1,0.,24.0,0.,24.0,0.,24.0,0.,24.0
1980-11-14 12:15:32.470 ,5,0,0.,24.0,0.,24.0,0.,24.0,0.,24.0
1980-11-14 12:15:56.470 ,4,1,0.,24.0,0.,24.0,0.,24.0,0.,24.0
1980-11-14 12:16:20.470 ,4,0,0.,24.0,0.,24.0,0.,24.0,0.,24.0
1980-11-14 12:16:44.470 ,3,1,0.,24.0,0.,24.0,0.,24.0,0.,24.0
1980-11-14 12:17:08.470 ,3,0,0.,24.0,0.,24.0,0.,24.0,0.,24.0
1980-11-14 12:17:32.470 ,2,1,0.,24.0,0.,24.0,0.,24.0,0.,24.0
1980-11-14 12:17:56.470 ,2,0,0.,24.0,0.,24.0,0.,24.0,0.,24.0
1980-11-14 12:18:20.470 ,1,1,0.,24.0,0.,24.0,0.,24.0,0.,24.0
1980-11-14 12:18:44.470 ,1,0,0.,24.0,0.,24.0,0.,24.0,0.,24.0
1980-11-14 12:19:08.470 ,0,1,0.,24.0,0.,24.0,0.,24.0,0.,24.0
1980-11-14 12:19:32.470 ,0,0,0.,24.0,0.,24.0,0.,24.0,0.,24.0
1980-11-14 12:19:56.470 ,0,1,0.,24.0,0.,24.0,0.,24.0,0.,24.0
1980-11-14 12:20:20.470 ,0,0,0.,24.0,0.,24.0,0.,24.0,0.,24.0
1980-11-14 12:20:44.470 ,1,1,0.,24.0,0.,24.0,0.,24.0,0.,24.0
1980-11-14 12:21:08.470 ,1,0,0.,24.0,0.,24.0,0.,24.0,0.,24.0
1980-11-14 12:21:32.470 ,2,1,0.,24.0,0.,24.0,0.,24.0,0.,24.0
1980-11-14 12:21:56.470 ,2,0,0.,24.0,0.,24.0,0.,24.0,0.,24.0
1980-11-14 12:22:20.470 ,3,1,0.,24.0,0.,24.0,0.,24.0,0.,24.0
1980-11-14 12:22:44.470 ,3,0,0.,24.0,0.,24.0,0.,24.0,0.,24.0
1980-11-14 12:23:08.470 ,4,1,0.,24.0,0.,24.0,0.,24.0,0.,24.0
1980-11-14 12:23:32.470 ,4,0,0.,24.0,0.,24.0,0.,24.0,0.,24.0
1980-11-14 13:35:56.470 ,0,0,0.,24.0,0.,24.0,0.,24.0,0.,24.0
1980-11-14 13:36:20.470 ,0,0,0.,24.0,0.,24.0,0.,24.0,0.,24.0
1980-11-14 13:36:44.470 ,0,1,0.,24.0,0.,24.0,0.,24.0,0.,24.0
1980-11-14 13:37:08.470 ,0,0,0.,24.0,0.,24.0,0.,24.0,0.,24.0
1980-11-14 13:37:32.470 ,1,1,0.,24.0,0.,24.0,0.,24.0,0.,24.0
1980-11-14 13:37:56.470 ,1,0,0.,24.0,0.,24.0,0.,24.0,0.,24.0
1980-11-14 13:38:20.470 ,2,1,0.,24.0,0.,24.0,0.,24.0,0.,24.0
1980-11-14 13:38:44.470 ,2,0,0.,24.0,0.,24.0,0.,24.0,0.,24.0
1980-11-14 13:39:08.470 ,3,1,0.,24.0,0.,24.0,0.,24.0,0.,24.0
1980-11-14 13:39:32.470 ,3,0,0.,24.0,0.,24.0,0.,24.0,0.,24.0
1980-11-14 13:39:56.470 ,4,1,0.,24.0,0.,24.0,0.,24.0,0.,24.0
1980-11-14 13:40:20.470 ,4,0,0.,24.0,0.,24.0,0.,24.0,0.,24.0
1980-11-14 13:40:44.470 ,5,1,0.,24.0,0.,24.0,0.,24.0,0.,24.0
1980-11-14 13:41:08.470 ,5,0,0.,24.0,0.,24.0,0.,24.0,0.,24.0
1980-11-14 13:41:32.470 ,6,1,0.,24.0,0.,24.0,0.,24.0,0.,24.0
1980-11-14 13:41:56.470 ,6,0,0.,24.0,0.,24.0,0.,24.0,0.,24.0
1980-11-14 13:42:20.470 ,7,1,0.,24.0,0.,24.0,0.,24.0,0.,24.0
1980-11-14 13:42:44.470 ,7,0,0.,24.0,0.,24.0,0.,24.0,0.,24.0
1980-11-14 13:43:08.470 ,7,1,0.,24.0,0.,24.0,0.,24.0,0.,24.0
1980-11-14 13:43:32.470 ,7,0,0.,24.0,0.,24.0,0.,24.0,0.,24.0
1980-11-14 13:43:56.470 ,6,1,0.,24.0,0.,24.0,0.,24.0,0.,24.0
1980-11-14 13:44:20.470 ,6,0,0.,24.0,0.,24.0,0.,24.0,0.,24.0
1980-11-14 13:44:44.470 ,5,1,0.,24.0,0.,24.0,0.,24.0,0.,24.0
1980-11-14 13:45:08.470 ,5,0,0.,24.0,0.,24.0,0.,24.0,0.,24.0
1980-11-14 13:45:32.470 ,4,1,0.,24.0,0.,24.0,0.,24.0,0.,24.0
1980-11-14 13:45:56.470 ,4,0,0.,24.0,0.,24.0,0.,24.0,0.,24.0
1980-11-14 13:46:20.470 ,3,1,0.,24.0,0.,24.0,0.,24.0,0.,24.0
1980-11-14 13:46:44.470 ,3,0,0.,24.0,0.,24.0,0.,24.0,0.,24.0
1980-11-14 13:47:08.470 ,2,1,0.,24.0,0.,24.0,0.,24.0,0.,24.0
1980-11-14 13:47:32.470 ,2,0,0.,24.0,0.,24.0,0.,24.0,0.,24.0
1980-11-14 13:47:56.470 ,1,1,0.,24.0,0.,24.0,0.,24.0,0.,24.0
1980-11-14 13:48:20.470 ,1,0,0.,24.0,0.,24.0,0.,24.0,0.,24.0
1980-11-14 13:48:44.470 ,0,1,0.,24.0,0.,24.0,0.,24.0,0.,24.0
1980-11-14 13:49:08.470 ,0,0,0.,24.0,0.,24.0,0.,24.0,0.,24.0
1980-11-14 13:49:32.470 ,0,1,0.,24.0,0.,24.0,0.,24.0,0.,24.0
1980-11-14 13:49:56.470 ,0,0,0.,24.0,0.,24.0,0.,24.0,0.,24.0
1980-11-14 13:50:20.470 ,1,1,0.,24.0,0.,24.0,0.,24.0,0.,24.0
1980-11-14 13:50:44.470 ,1,0,0.,24.0,0.,24.0,0.,24.0,0.,24.0
1980-11-14 13:51:08.470 ,2,1,0.,24.0,0.,24.0,0.,24.0,0.,24.0
1980-11-14 13:51:32.470 ,2,0,0.,24.0,0.,24.0,0.,24.0,0.,24.0
1980-11-14 13:51:56.470 ,3,1,0.,24.0,0.,24.0,0.,24.0,0.,24.0
1980-11-14 13:52:20.470 ,3,0,0.,24.0,0.,24.0,0.,24.0,0.,24.0
1980-11-14 13:52:44.470 ,4,1,0.,24.0,0.,24.0,0.,24.0,0.,24.0
1980-11-14 13:53:08.470 ,4,0,0.,24.0,0.,24.0,0.,24.0,0.,24.0
1980-11-14 13:53:32.470 ,5,1,0.,24.0,0.,24.0,0.,24.0,0.,24.0
1980-11-14 13:53:56.470 ,5,0,0.,24.0,0.,24.0,0.,24.0,0.,24.0
1980-11-14 13:54:20.470 ,6,1,0.,24.0,0.,24.0,0.,24.0,0.,24.0
1980-11-14 13:54:44.470 ,6,0,0.,24.0,0.,24.0,0.,24.0,0.,24.0
1980-11-14 13:55:08.470 ,7,1,0.,24.0,0.,24.0,0.,24.0,0.,24.0
1980-11-14 13:55:32.470 ,7,0,0.,24.0,0.,24.0,0.,24.0,0.,24.0
1980-11-14 13:55:56.470 ,7,1,0.,24.0,0.,24.0,0.,24.0,0.,24.0
1980-11-14 13:56:20.470 ,7,0,0.,24.0,0.,24.0,0.,24.0,0.,24.0
1980-11-14 13:56:44.470 ,6,1,0.,24.0,0.,24.0,0.,24.0,0.,24.0
1980-11-14 13:57:08.470 ,6,0,0.,24.0,0.,24.0,0.,24.0,0.,24.0
1980-11-14 13:57:32.470 ,5,1,0.,24.0,0.,24.0,0.,24.0,0.,24.0
1980-11-14 13:57:56.470 ,5,0,0.,24.0,0.,24.0,0.,24.0,0.,24.0
1980-11-14 13:58:20.470 ,4,1,0.,24.0,0.,24.0,0.,24.0,0.,24.0
1980-11-14 13:58:44.470 ,4,0,0.,24.0,0.,24.0,0.,24.0,0.,24.0
1980-11-14 13:59:08.470 ,3,1,0.,24.0,0.,24.0,0.,24.0,0.,24.0
1980-11-14 13:59:32.470 ,3,0,0.,24.0,0.,24.0,0.,24.0,0.,24.0
1980-11-14 13:59:56.470 ,2,1,0.,24.0,0.,24.0,0.,24.0,0.,24.0
1980-11-14 14:00:20.470 ,2,0,0.,24.0,0.,24.0,0.,24.0,0.,24.0
1980-11-14 14:00:44.470 ,1,1,0.,24.0,0.,24.0,0.,24.0,0.,24.0
1980-11-14 14:01:08.470 ,1,0,0.,24.0,0.,24.0,0.,24.0,0.,24.0
1980-11-14 14:01:32.470 ,0,1,0.,24.0,0.,24.0,0.,24.0,0.,24.0
1980-11-14 14:01:56.470 ,0,0,0.,24.0,0.,24.0,0.,24.0,0.,24.0
1980-11-14 14:02:20.470 ,0,1,0.,24.0,0.,24.0,0.,24.0,0.,24.0
1980-11-14 14:02:44.470 ,0,0,0.,24.0,0.,24.0,0.,24.0,0.,24.0
1980-11-14 14:03:08.470 ,1,1,0.,24.0,0.,24.0,0.,24.0,0.,24.0
1980-11-14 14:03:32.470 ,1,0,0.,24.0,0.,24.0,0.,24.0,0.,24.0
1980-11-14 14:03:56.470 ,2,1,0.,24.0,0.,24.0,0.,24.0,0.,24.0
1980-11-14 14:04:20.470 ,2,0,0.,24.0,0.,24.0,0.,24.0,0.,24.0
1980-11-14 14:04:44.470 ,3,1,0.,24.0,0.,24.0,0.,24.0,0.,24.0
1980-11-14 14:05:08.470 ,3,0,0.,24.0,0.,24.0,0.,24.0,0.,24.0
1980-11-14 14:05:32.470 ,4,1,0.,24.0,0.,24.0,0.,24.0,0.,24.0
1980-11-14 14:05:56.470 ,4,0,0.,24.0,0.,24.0,0.,24.0,0.,24.0
1980-11-14 14:06:20.470 ,5,1,0.,24.0,0.,24.0,0.,24.0,0.,24.0
1980-11-14 14:06:44.470 ,5,0,0.,24.0,0.,24.0,0.,24.0,0.,24.0
1980-11-14 14:07:08.470 ,6,1,0.,24.0,0.,24.0,0.,24.0,0.,24.0
1980-11-14 14:07:32.470 ,6,0,0.,24.0,0.,24.0,0.,24.0,0.,24.0
1980-11-14 14:07:56.470 ,7,1,0.,24.0,0.,24.0,0.,24.0,0.,24.0
1980-11-14 14:08:20.470 ,7,0,0.,24.0,0.,24.0,0.,24.0,0.,24.0
1980-11-14 14:08:44.470 ,7,1,0.,24.0,0.,24.0,0.,24.0,0.,24.0
1980-11-14 14:09:08.470 ,7,0,0.,24.0,0.,24.0,0.,24.0,0.,24.0
1980-11-14 14:09:32.470 ,6,1,0.,24.0,0.,24.0,0.,24.0,0.,24.0
1980-11-14 14:09:56.470 ,6,0,0.,24.0,0.,24.0,0.,24.0,0.,24.0
1980-11-14 14:10:20.470 ,5,1,0.,24.0,0.,24.0,0.,24.0,0.,24.0
1980-11-14 14:10:44.470 ,5,0,0.,24.0,0.,24.0,0.,24.0,0.,24.0
1980-11-14 14:11:08.470 ,4,1,0.,24.0,0.,24.0,0.,24.0,0.,24.0
1980-11-14 14:11:32.470 ,4,0,0.,24.0,0.,24.0,0.,24.0,0.,24.0
1980-11-14 14:11:56.470 ,3,1,0.,24.0,0.,24.0,0.,24.0,0.,24.0
1980-11-14 14:12:20.470 ,3,0,0.,24.0,0.,24.0,0.,24.0,0.,24.0
1980-11-14 14:12:44.470 ,2,1,0.,24.0,0.,24.0,0.,24.0,0.,24.0
1980-11-14 14:13:08.470 ,2,0,0.,24.0,0.,24.0,0.,24.0,0.,24.0
1980-11-14 14:13:32.470 ,1,1,0.,24.0,0.,24.0,0.,24.0,0.,24.0
1980-11-14 14:13:56.470 ,1,0,0.,24.0,0.,24.0,0.,24.0,0.,24.0
1980-11-14 14:14:20.470 ,0,1,0.,24.0,0.,24.0,0.,24.0,0.,24.0
1980-11-14 14:14:44.470 ,0,0,1.,24.0,0.,24.0,0.,24.0,0.,24.0
1980-11-14 14:15:08.470 ,0,1,0.,24.0,0.,24.0,0.,24.0,0.,24.0
1980-11-14 14:15:32.470 ,0,0,0.,24.0,0.,24.0,0.,24.0,0.,24.0
1980-11-14 14:15:56.470 ,1,1,0.,24.0,0.,24.0,0.,24.0,0.,24.0
1980-11-14 14:16:20.470 ,1,0,0.,24.0,0.,24.0,0.,24.0,0.,24.0
1980-11-14 14:16:44.470 ,2,1,0.,24.0,0.,24.0,0.,24.0,0.,24.0
1980-11-14 14:17:08.470 ,2,0,0.,24.0,0.,24.0,0.,24.0,0.,24.0
1980-11-14 14:17:32.470 ,3,1,0.,24.0,0.,24.0,0.,24.0,0.,24.0
1980-11-14 14:17:56.470 ,3,0,0.,24.0,0.,24.0,0.,24.0,0.,24.0
1980-11-14 14:18:20.470 ,4,1,0.,24.0,0.,24.0,0.,24.0,0.,24.0
1980-11-14 14:18:44.470 ,4,0,0.,24.0,0.,24.0,0.,24.0,0.,24.0
1980-11-14 14:19:08.470 ,5,1,0.,24.0,0.,24.0,0.,24.0,0.,24.0
1980-11-14 14:19:32.470 ,5,0,0.,24.0,0.,24.0,0.,24.0,0.,24.0
1980-11-14 14:19:56.470 ,6,1,0.,24.0,0.,24.0,0.,24.0,0.,24.0
1980-11-14 14:20:20.470 ,6,0,0.,24.0,0.,24.0,0.,24.0,0.,24.0
1980-11-14 14:20:44.470 ,7,1,0.,24.0,0.,24.0,0.,24.0,0.,24.0
1980-11-14 14:21:08.470 ,7,0,0.,24.0,0.,24.0,0.,24.0,0.,24.0
1980-11-14 14:21:32.470 ,7,1,0.,24.0,0.,24.0,0.,24.0,0.,24.0
1980-11-14 14:21:56.470 ,7,0,0.,24.0,0.,24.0,0.,24.0,0.,24.0
1980-11-14 14:22:20.470 ,6,1,0.,24.0,0.,24.0,0.,24.0,0.,24.0
1980-11-14 14:22:44.470 ,6,0,0.,24.0,0.,24.0,0.,24.0,0.,24.0
1980-11-14 14:23:08.470 ,5,1,0.,24.0,0.,24.0,0.,24.0,0.,24.0
1980-11-14 14:23:32.470 ,5,0,0.,24.0,0.,24.0,0.,24.0,0.,24.0
1980-11-14 14:23:56.470 ,4,1,0.,24.0,0.,24.0,0.,24.0,0.,24.0
1980-11-14 14:24:20.470 ,4,0,0.,24.0,0.,24.0,0.,24.0,0.,24.0
1980-11-14 14:24:44.470 ,3,1,0.,24.0,0.,24.0,0.,24.0,0.,24.0
1980-11-14 14:25:08.470 ,3,0,0.,24.0,0.,24.0,0.,24.0,0.,24.0
1980-11-14 14:25:32.470 ,2,1,0.,24.0,0.,24.0,0.,24.0,0.,24.0
1980-11-14 14:25:56.470 ,2,0,0.,24.0,0.,24.0,0.,24.0,0.,24.0
1980-11-14 14:26:20.470 ,1,1,0.,24.0,0.,24.0,0.,24.0,0.,24.0
1980-11-14 14:26:44.470 ,1,0,0.,24.0,0.,24.0,0.,24.0,0.,24.0
1980-11-14 14:27:08.470 ,0,1,0.,24.0,0.,24.0,0.,24.0,0.,24.0
1980-11-14 14:27:32.470 ,0,0,1.,24.0,0.,24.0,0.,24.0,0.,24.0
1980-11-14 14:27:56.470 ,0,1,0.,24.0,0.,24.0,0.,24.0,0.,24.0
1980-11-14 14:28:20.470 ,0,0,0.,24.0,0.,24.0,0.,24.0,0.,24.0
1980-11-14 14:28:44.470 ,1,1,0.,24.0,0.,24.0,0.,24.0,0.,24.0
1980-11-14 14:29:08.470 ,1,0,0.,24.0,0.,24.0,0.,24.0,0.,24.0
1980-11-14 14:29:32.470 ,2,1,0.,24.0,0.,24.0,0.,24.0,0.,24.0
1980-11-14 14:29:56.470 ,2,0,0.,24.0,0.,24.0,0.,24.0,0.,24.0
1980-11-14 14:30:20.470 ,3,1,0.,24.0,0.,24.0,0.,24.0,0.,24.0
1980-11-14 14:30:44.470 ,3,0,0.,24.0,0.,24.0,0.,24.0,0.,24.0
1980-11-14 14:31:08.470 ,4,1,0.,24.0,0.,24.0,0.,24.0,0.,24.0
1980-11-14 14:31:32.470 ,4,0,0.,24.0,0.,24.0,0.,24.0,0.,24.0
1980-11-14 14:31:56.470 ,5,1,0.,24.0,0.,24.0,0.,24.0,0.,24.0
1980-11-14 14:32:20.470 ,5,0,0.,24.0,0.,24.0,0.,24.0,0.,24.0
1980-11-14 14:32:44.470 ,6,1,0.,24.0,0.,24.0,0.,24.0,0.,24.0
1980-11-14 14:33:08.470 ,6,0,0.,24.0,0.,24.0,0.,24.0,0.,24.0
1980-11-14 14:33:32.470 ,7,1,0.,24.0,0.,24.0,0.,24.0,0.,24.0
1980-11-14 14:33:56.470 ,7,0,0.,24.0,0.,24.0,0.,24.0,0.,24.0
1980-11-14 14:34:20.470 ,7,1,0.,24.0,0.,24.0,0.,24.0,0.,24.0
1980-11-14 14:34:44.470 ,7,0,0.,24.0,0.,24.0,0.,24.0,0.,24.0
1980-11-14 14:35:08.470 ,6,1,0.,24.0,0.,24.0,0.,24.0,0.,24.0
1980-11-14 14:35:32.470 ,6,0,0.,24.0,0.,24.0,0.,24.0,0.,24.0
1980-11-14 14:35:56.470 ,5,1,0.,24.0,0.,24.0,0.,24.0,0.,24.0
1980-11-14 14:36:20.470 ,5,0,0.,24.0,0.,24.0,0.,24.0,0.,24.0
1980-11-14 14:36:44.470 ,4,1,0.,24.0,0.,24.0,0.,24.0,0.,24.0
1980-11-14 14:37:08.470 ,4,0,0.,24.0,0.,24.0,0.,24.0,0.,24.0
1980-11-14 14:37:32.470 ,3,1,0.,24.0,0.,24.0,0.,24.0,0.,24.0
1980-11-14 14:37:56.470 ,3,0,0.,24.0,0.,24.0,0.,24.0,0.,24.0
1980-11-14 14:38:20.470 ,2,1,0.,24.0,0.,24.0,0.,24.0,0.,24.0
1980-11-14 14:38:44.470 ,2,0,0.,24.0,0.,24.0,0.,24.0,0.,24.0
1980-11-14 14:39:08.470 ,1,1,0.,24.0,0.,24.0,0.,24.0,0.,24.0
1980-11-14 14:39:32.470 ,1,0,0.,24.0,0.,24.0,0.,24.0,0.,24.0
1980-11-14 14:39:56.470 ,0,1,0.,24.0,0.,24.0,0.,24.0,0.,24.0
1980-11-14 14:40:20.470 ,0,0,0.,24.0,0.,24.0,0.,24.0,0.,24.0
1980-11-14 14:40:44.470 ,0,1,0.,24.0,0.,24.0,0.,24.0,0.,24.0
1980-11-14 14:41:08.470 ,0,0,0.,24.0,0.,24.0,0.,24.0,0.,24.0
1980-11-14 14:41:32.470 ,1,1,0.,24.0,0.,24.0,0.,24.0,0.,24.0
1980-11-14 14:41:56.470 ,1,0,0.,24.0,0.,24.0,0.,24.0,0.,24.0
1980-11-14 14:42:20.470 ,2,1,0.,24.0,0.,24.0,0.,24.0,0.,24.0
1980-11-14 14:42:44.470 ,2,0,0.,24.0,0.,24.0,0.,24.0,0.,24.0
1980-11-14 14:43:08.470 ,3,1,0.,24.0,0.,24.0,0.,24.0,0.,24.0
1980-11-14 14:43:32.470 ,3,0,0.,24.0,0.,24.0,0.,24.0,0.,24.0
1980-11-14 14:43:56.470 ,4,1,0.,24.0,0.,24.0,0.,24.0,0.,24.0
1980-11-14 14:44:20.470 ,4,0,0.,24.0,0.,24.0,0.,24.0,0.,24.0
1980-11-14 14:44:44.470 ,5,1,0.,24.0,0.,24.0,0.,24.0,0.,24.0
1980-11-14 14:45:08.470 ,5,0,0.,24.0,0.,24.0,0.,24.0,0.,24.0
1980-11-14 14:45:32.470 ,6,1,0.,24.0,0.,24.0,0.,24.0,0.,24.0
1980-11-14 14:45:56.470 ,6,0,0.,24.0,0.,24.0,0.,24.0,0.,24.0
1980-11-14 14:46:20.470 ,7,1,0.,24.0,0.,24.0,0.,24.0,1.,24.0
1980-11-14 14:46:44.470 ,7,0,0.,24.0,0.,24.0,0.,24.0,0.,24.0
1980-11-14 14:47:08.470 ,7,1,0.,24.0,0.,24.0,0.,24.0,0.,24.0
1980-11-14 14:47:32.470 ,7,0,0.,24.0,0.,24.0,0.,24.0,0.,24.0
1980-11-14 14:47:56.470 ,6,1,0.,24.0,0.,24.0,0.,24.0,0.,24.0
1980-11-14 14:48:20.470 ,6,0,0.,24.0,0.,24.0,0.,24.0,0.,24.0
1980-11-14 14:48:44.470 ,5,1,0.,24.0,0.,24.0,0.,24.0,0.,24.0
1980-11-14 14:49:08.470 ,5,0,0.,24.0,0.,24.0,0.,24.0,0.,24.0
1980-11-14 14:49:32.470 ,4,1,0.,24.0,0.,24.0,0.,24.0,0.,24.0
1980-11-14 14:49:56.470 ,4,0,0.,24.0,0.,24.0,0.,24.0,0.,24.0
1980-11-14 14:50:20.470 ,3,1,0.,24.0,0.,24.0,0.,24.0,0.,24.0
1980-11-14 14:50:44.470 ,3,0,0.,24.0,0.,24.0,0.,24.0,0.,24.0
1980-11-14 14:51:08.470 ,2,1,0.,24.0,0.,24.0,0.,24.0,0.,24.0
1980-11-14 14:51:32.470 ,2,0,0.,24.0,0.,24.0,0.,24.0,0.,24.0
1980-11-14 14:51:56.470 ,1,1,0.,24.0,0.,24.0,0.,24.0,0.,24.0
1980-11-14 14:52:20.470 ,1,0,0.,24.0,0.,24.0,0.,24.0,0.,24.0
1980-11-14 14:52:44.470 ,0,1,0.,24.0,0.,24.0,0.,24.0,0.,24.0
1980-11-14 14:53:08.470 ,0,0,0.,24.0,0.,24.0,0.,24.0,0.,24.0
1980-11-14 14:53:32.470 ,0,1,0.,24.0,0.,24.0,0.,24.0,0.,24.0
1980-11-14 14:53:56.470 ,0,0,0.,24.0,0.,24.0,0.,24.0,0.,24.0
1980-11-14 14:54:20.470 ,1,1,0.,24.0,0.,24.0,0.,24.0,0.,24.0
1980-11-14 14:54:44.470 ,1,0,0.,24.0,0.,24.0,0.,24.0,0.,24.0
1980-11-14 14:55:08.470 ,2,1,0.,24.0,0.,24.0,0.,24.0,0.,24.0
1980-11-14 14:55:32.470 ,2,0,0.,24.0,0.,24.0,0.,24.0,0.,24.0
1980-11-14 14:55:56.470 ,3,1,0.,24.0,0.,24.0,0.,24.0,0.,24.0
1980-11-14 14:56:20.470 ,3,0,0.,24.0,0.,24.0,0.,24.0,0.,24.0
1980-11-14 14:56:44.470 ,4,1,0.,24.0,0.,24.0,0.,24.0,0.,24.0
1980-11-14 14:57:08.470 ,4,0,0.,24.0,0.,24.0,0.,24.0,0.,24.0
1980-11-14 14:57:32.470 ,5,1,0.,24.0,0.,24.0,0.,24.0,0.,24.0
1980-11-14 14:57:56.470 ,5,0,0.,24.0,0.,24.0,0.,24.0,0.,24.0
1980-11-14 14:58:20.470 ,6,1,0.,24.0,0.,24.0,0.,24.0,0.,24.0
1980-11-14 14:58:44.470 ,6,0,0.,24.0,0.,24.0,0.,24.0,0.,24.0
1980-11-14 14:59:08.470 ,7,1,0.,24.0,0.,24.0,0.,24.0,0.,24.0
1980-11-14 14:59:32.470 ,7,0,0.,24.0,0.,24.0,0.,24.0,0.,24.0
1980-11-14 14:59:56.470 ,7,1,0.,24.0,0.,24.0,0.,24.0,0.,24.0
